Starlink 3238

operational
NORAD ID: 49734 Int'l Des: 2021-115 Owner: SPXS Country: US Constellation: starlink
LEOCIRCULAR

Starlink 3238について

説明を読み込み中...

リアルタイム位置

3D地球を読み込み中...

次回通過

高度履歴

Altitude vs Time

uPlot chart will show altitude changes over time

軌道要素

1 49734U 21115L 25351.19888251 .00000862 00000-0 72250-4 0 9991
2 49734 53.2164 159.4623 0001266 90.0168 270.0969 15.08839303223087
Epoch: Dec 17, 2025 • Age: 10 hours

現在のステータス

高度 541.5 km
速度 7.60 km/s
衛星直下点 33.67°N, 116.7°W
打ち上げ日 Dec 2, 2021
運用期間 4 years
タイプ internet

技術仕様

分類 Payload
質量 290.00 kg
乾燥質量 270.00 kg
総質量 290.00 kg
長さ 0.20 m
直径 2.80 m
スパン 9.00 m
形状 Box + pan
製造者 SPXS
バスタイプ Starlink
フェーズステータス In Orbit
所有者/国 SPXS/US

大規模コンステレーション

Loading constellations...